When you browse on this site, cookies collect data to enhance your experience and personalize the content and advertising you see.
Visit our Privacy Policy to learn more. By continuing to use the site, you agree to this use of cookies and data.
  • En España
  • Lista de países
  • Para 7 días
  • Temperatura del agua
  • El tiempo en el mapa
  • Informadores
  • user-avatar
    Iniciar sesión

    Tiempo cada hora Tonton

    Hoy, 17 Septiembre, Martes

    Tiempo Temperatura Precipitaciones Viento Presión Humedad
    00:00 +16°C° 0 mm 3 mps 766 mmHg 88%
    01:00 +14°C° 0 mm 4 mps 766 mmHg 86%
    02:00 +13°C° 0 mm 4 mps 765 mmHg 83%
    03:00 +13°C° 0 mm 4 mps 765 mmHg 80%
    04:00 +12°C° 0 mm 4 mps 766 mmHg 83%
    05:00 +11°C° 0 mm 4 mps 766 mmHg 85%
    06:00 +10°C° 0 mm 3 mps 766 mmHg 87%
    07:00 +11°C° 0 mm 4 mps 766 mmHg 83%
    08:00 +12°C° 0 mm 4 mps 767 mmHg 79%
    09:00 +14°C° 0 mm 5 mps 767 mmHg 75%
    10:00 +15°C° 0 mm 5 mps 767 mmHg 72%
    11:00 +16°C° 0 mm 5 mps 767 mmHg 68%
    12:00 +17°C° 0 mm 5 mps 767 mmHg 65%
    13:00 +18°C° 0 mm 4 mps 767 mmHg 65%
    14:00 +18°C° 0 mm 4 mps 767 mmHg 64%
    15:00 +18°C° 0 mm 4 mps 767 mmHg 64%
    16:00 +17°C° 0 mm 4 mps 767 mmHg 69%
    17:00 +15°C° 0 mm 4 mps 767 mmHg 73%
    18:00 +14°C° 0 mm 4 mps 767 mmHg 78%
    19:00 +13°C° 0 mm 4 mps 768 mmHg 80%
    20:00 +12°C° 0 mm 4 mps 768 mmHg 82%
    21:00 +11°C° 0 mm 4 mps 768 mmHg 85%
    22:00 +10°C° 0 mm 4 mps 769 mmHg 86%
    23:00 +10°C° 0 mm 3 mps 769 mmHg 87%

    Mañana, 18 Septiembre, Miércoles

    Tiempo Temperatura Precipitaciones Viento Presión Humedad
    00:00 +9°C° 0 mm 3 mps 769 mmHg 89%
    01:00 +9°C° 0 mm 3 mps 769 mmHg 89%
    02:00 +8°C° 0 mm 2 mps 769 mmHg 90%
    03:00 +8°C° 0 mm 2 mps 769 mmHg 90%
    04:00 +7°C° 0 mm 2 mps 769 mmHg 90%
    05:00 +7°C° 0 mm 2 mps 770 mmHg 90%
    06:00 +7°C° 0 mm 2 mps 770 mmHg 90%
    07:00 +9°C° 0 mm 2 mps 770 mmHg 82%
    08:00 +10°C° 0 mm 2 mps 770 mmHg 73%
    09:00 +12°C° 0 mm 3 mps 771 mmHg 65%
    10:00 +14°C° 0 mm 3 mps 771 mmHg 61%
    11:00 +16°C° 0 mm 3 mps 770 mmHg 58%
    12:00 +17°C° 0 mm 3 mps 770 mmHg 54%
    13:00 +17°C° 0 mm 3 mps 770 mmHg 55%
    14:00 +18°C° 0 mm 3 mps 770 mmHg 55%
    15:00 +18°C° 0 mm 3 mps 770 mmHg 55%
    16:00 +17°C° 0 mm 2 mps 770 mmHg 61%
    17:00 +15°C° 0 mm 2 mps 770 mmHg 67%
    18:00 +14°C° 0 mm 2 mps 770 mmHg 73%
    19:00 +13°C° 0 mm 2 mps 770 mmHg 75%
    20:00 +12°C° 0 mm 2 mps 771 mmHg 77%
    21:00 +12°C° 0 mm 1 mps 771 mmHg 78%
    22:00 +11°C° 0 mm 1 mps 771 mmHg 79%
    23:00 +11°C° 0 mm 1 mps 771 mmHg 80%

    Pasado mañana, 19 Septiembre, Jueves

    Tiempo Temperatura Precipitaciones Viento Presión Humedad
    00:00 +11°C° 0 mm 1 mps 771 mmHg 81%
    01:00 +10°C° 0 mm 1 mps 771 mmHg 81%
    02:00 +10°C° 0 mm 1 mps 771 mmHg 81%
    03:00 +10°C° 0 mm 1 mps 771 mmHg 82%
    04:00 +10°C° 0 mm 1 mps 771 mmHg 82%
    05:00 +10°C° 0 mm 1 mps 771 mmHg 83%
    06:00 +9°C° 0 mm 1 mps 771 mmHg 83%
    07:00 +11°C° 0 mm 1 mps 771 mmHg 77%
    08:00 +13°C° 0 mm 1 mps 771 mmHg 72%
    09:00 +15°C° 0 mm 1 mps 772 mmHg 66%
    10:00 +17°C° 0 mm 2 mps 772 mmHg 63%
    11:00 +18°C° 0 mm 2 mps 771 mmHg 61%
    12:00 +19°C° 0 mm 2 mps 771 mmHg 58%
    13:00 +19°C° 0 mm 2 mps 771 mmHg 60%
    14:00 +19°C° 0 mm 2 mps 771 mmHg 61%
    15:00 +19°C° 0 mm 2 mps 770 mmHg 62%
    16:00 +19°C° 0 mm 1 mps 770 mmHg 69%
    17:00 +16°C° 0 mm 1 mps 770 mmHg 76%
    18:00 +15°C° 0 mm 1 mps 770 mmHg 83%
    19:00 +14°C° 0 mm 1 mps 770 mmHg 84%
    20:00 +13°C° 0 mm 1 mps 770 mmHg 86%
    21:00 +13°C° 0 mm 1 mps 770 mmHg 87%
    22:00 +12°C° 0 mm 1 mps 770 mmHg 88%
    23:00 +12°C° 0 mm 2 mps 770 mmHg 88%

    20 Septiembre, Viernes

    Tiempo Temperatura Precipitaciones Viento Presión Humedad
    00:00 +12°C° 0 mm 2 mps 769 mmHg 89%
    01:00 +12°C° 0 mm 2 mps 769 mmHg 90%
    02:00 +10°C° 0 mm 2 mps 769 mmHg 91%
    03:00 +10°C° 0 mm 2 mps 769 mmHg 92%
    04:00 +10°C° 0 mm 3 mps 768 mmHg 93%
    05:00 +10°C° 0 mm 3 mps 768 mmHg 94%
    06:00 +10°C° 0 mm 3 mps 767 mmHg 95%
    07:00 +11°C° 0 mm 4 mps 767 mmHg 89%
    08:00 +13°C° 0 mm 5 mps 767 mmHg 82%
    09:00 +15°C° 0 mm 6 mps 767 mmHg 76%
    10:00 +16°C° 0 mm 6 mps 767 mmHg 69%
    11:00 +17°C° 0 mm 6 mps 766 mmHg 63%
    12:00 +18°C° 0 mm 7 mps 766 mmHg 56%
    13:00 +18°C° 0 mm 7 mps 765 mmHg 55%
    14:00 +18°C° 0 mm 7 mps 764 mmHg 54%
    15:00 +18°C° 0 mm 7 mps 763 mmHg 54%
    16:00 +16°C° 0 mm 6 mps 763 mmHg 58%
    17:00 +15°C° 0 mm 6 mps 762 mmHg 62%
    18:00 +14°C° 0 mm 5 mps 762 mmHg 66%
    19:00 +14°C° 0 mm 6 mps 761 mmHg 65%
    20:00 +14°C° 0 mm 6 mps 761 mmHg 64%
    21:00 +14°C° 0 mm 6 mps 761 mmHg 63%
    22:00 +14°C° 0 mm 6 mps 760 mmHg 65%
    23:00 +14°C° 0 mm 6 mps 760 mmHg 67%

    21 Septiembre, Sábado

    Tiempo Temperatura Precipitaciones Viento Presión Humedad
    00:00 +14°C° 0 mm 6 mps 759 mmHg 69%
    01:00 +14°C° 0 mm 6 mps 759 mmHg 72%
    02:00 +13°C° 0 mm 5 mps 758 mmHg 75%
    03:00 +13°C° 0 mm 5 mps 758 mmHg 78%
    04:00 +13°C° 0 mm 5 mps 757 mmHg 80%
    05:00 +13°C° 0 mm 4 mps 757 mmHg 82%
    06:00 +12°C° 0 mm 4 mps 756 mmHg 83%
    07:00 +14°C° 0 mm 5 mps 756 mmHg 79%
    08:00 +16°C° 0 mm 5 mps 756 mmHg 74%
    09:00 +17°C° 0 mm 6 mps 756 mmHg 69%
    10:00 +19°C° 0 mm 6 mps 755 mmHg 69%
    11:00 +20°C° 0 mm 6 mps 755 mmHg 70%
    12:00 +21°C° 0 mm 7 mps 755 mmHg 70%
    13:00 +20°C° 0.2 mm 7 mps 754 mmHg 75%
    14:00 +20°C° 0.2 mm 6 mps 754 mmHg 79%
    15:00 +20°C° 0.2 mm 6 mps 753 mmHg 84%
    16:00 +19°C° 0.6 mm 5 mps 753 mmHg 88%
    17:00 +19°C° 0.6 mm 4 mps 753 mmHg 92%
    18:00 +18°C° 0.6 mm 3 mps 753 mmHg 96%
    19:00 +17°C° 0.1 mm 3 mps 753 mmHg 96%
    20:00 +17°C° 0.1 mm 4 mps 753 mmHg 96%
    21:00 +15°C° 0.1 mm 5 mps 753 mmHg 96%
    22:00 +15°C° 0 mm 5 mps 753 mmHg 96%
    23:00 +15°C° 0 mm 5 mps 753 mmHg 96%

    22 Septiembre, Domingo

    Tiempo Temperatura Precipitaciones Viento Presión Humedad
    00:00 +16°C° 0 mm 5 mps 753 mmHg 96%
    01:00 +16°C° 0.1 mm 6 mps 753 mmHg 96%
    02:00 +16°C° 0.1 mm 6 mps 753 mmHg 96%
    03:00 +16°C° 0.1 mm 6 mps 753 mmHg 96%
    04:00 +15°C° 1.5 mm 5 mps 753 mmHg 95%
    05:00 +15°C° 1.5 mm 5 mps 753 mmHg 95%
    06:00 +14°C° 1.5 mm 4 mps 753 mmHg 94%
    07:00 +15°C° 0 mm 4 mps 754 mmHg 91%
    08:00 +15°C° 0 mm 5 mps 754 mmHg 88%
    09:00 +16°C° 0 mm 5 mps 755 mmHg 85%
    10:00 +16°C° 0.3 mm 5 mps 755 mmHg 81%
    11:00 +17°C° 0.3 mm 5 mps 755 mmHg 77%
    12:00 +17°C° 0.3 mm 5 mps 756 mmHg 73%
    13:00 +19°C° 0.1 mm 5 mps 756 mmHg 70%
    14:00 +19°C° 0.1 mm 6 mps 756 mmHg 67%
    15:00 +19°C° 0.1 mm 6 mps 756 mmHg 64%
    16:00 +17°C° 0 mm 6 mps 757 mmHg 69%
    17:00 +16°C° 0 mm 5 mps 757 mmHg 74%
    18:00 +14°C° 0 mm 5 mps 758 mmHg 80%
    19:00 +13°C° 0 mm 5 mps 758 mmHg 84%
    20:00 +13°C° 0 mm 4 mps 759 mmHg 87%
    21:00 +12°C° 0 mm 4 mps 760 mmHg 91%
    22:00 +11°C° 0 mm 4 mps 760 mmHg 92%
    23:00 +11°C° 0 mm 4 mps 760 mmHg 92%
    Mostrar más